Volver al catálogo

NOAA 16 DEB

ActivoPO
NORAD 41236·DEBRIS·🇺🇸 United States

Lanzado Sep 21, 2000 desde Vandenberg Space Force Base

Loading…

Próximos Pases (próximas 24 horas)

TLE

ActualizadoSource: Space-Track

Época: Sep 14, 2026, 04:50 UTC

1 41236U 00055ER  26257.20161343  .00004171  00000-0  10415-2 0  9994
2 41236  99.0441 160.4004 0028064 201.1408 158.8627 14.51914497560650

Sigue NOAA 16 DEB en tiempo real con AllMySat

Download on the App Store